[keps] orb12215.2l.amsat
Ray Hoad
ray.hoad at mypbmail.com
Thu Aug 2 19:44:40 PDT 2012
SB KEPS @ AMSAT $ORB12215.N
2Line Orbital Elements 12215.AMSAT
HR AMSAT ORBITAL ELEMENTS FOR AMATEUR SATELLITES IN NASA FORMAT
FROM WA5QGD FORT WORTH,TX August 2, 2012
Send SUBSCRIBE KEPS/UNSUBSCRIBE KEPS to majordomo at amsat.org only
BID: ORB12215.N
DECODE 2-LINE ELSETS WITH THE FOLLOWING KEY:
1 AAAAAU 00 0 0 BBBBB.BBBBBBBB .CCCCCCCC 00000-0 00000-0 0 DDDZ
2 AAAAA EEE.EEEE FFF.FFFF GGGGGGG HHH.HHHH III.IIII JJ.JJJJJJJJKKKKKZ
KEY: A-CATALOGNUM B-EPOCHTIME C-DECAY D-ELSETNUM E-INCLINATION F-RAAN
G-ECCENTRICITY H-ARGPERIGEE I-MNANOM J-MNMOTION K-ORBITNUM Z-CHECKSUM
TO ALL RADIO AMATEURS BT
AO-07
1 07530U 74089B 12214.55466960 -.00000027 00000-0 10000-3 0 4454
2 07530 101.4051 210.0181 0011592 192.7824 167.2954 12.53590410725731
FO-29
1 24278U 96046B 12214.88552316 -.00000025 00000-0 13511-4 0 9023
2 24278 098.5856 309.5651 0349698 271.0879 085.0222 13.52985611788135
SO-33
1 25509U 98061B 12214.68447970 +.00000329 +00000-0 +50549-4 0 02905
2 25509 031.4359 076.2093 0353174 241.4381 115.0294 14.28797956719165
RS-22
1 27939U 03042A 12215.53970040 .00000469 00000-0 97685-4 0 5947
2 27939 097.8091 053.9723 0014346 115.4870 244.7816 14.64081402472666
VO-52
1 28650U 05017B 12214.86768926 +.00001407 +00000-0 +17814-3 0 01714
2 28650 097.5953 243.5856 0025170 250.4001 109.4488 14.83074342391745
HO-68
1 36122U 09072B 12215.80797145 -.00000044 00000-0 00000+0 0 7024
2 36122 100.3580 274.2073 0007601 005.2091 354.9103 13.16297122126524
UO-11
1 14781U 84021B 12214.94445695 +.00000670 +00000-0 +94309-4 0 09499
2 14781 097.9499 274.0569 0007770 242.3580 117.6842 14.80506995526704
AO-16
1 20439U 90005D 12215.89992929 .00000077 00000-0 44495-4 0 5259
2 20439 098.4333 157.9722 0011626 024.5801 335.5932 14.32069861176687
LO-19
1 20442U 90005G 12214.93783163 +.00000145 +00000-0 +69338-4 0 04703
2 20442 098.3980 159.8822 0012305 019.6265 340.5385 14.32287521176733
AO-27
1 22825U 93061C 12214.88328874 .00000050 00000-0 36540-4 0 1636
2 22825 098.5765 156.9915 0008788 140.0634 220.1188 14.29474073983009
IO-26
1 22826U 93061D 12214.87540138 +.00000056 +00000-0 +38746-4 0 09268
2 22826 098.5708 157.3432 0009195 134.1829 226.0106 14.29748977983135
GO-32
1 25397U 98043D 12214.81156659 .00000063 00000-0 45779-4 0 8388
2 25397 098.3644 191.2843 0001990 124.7544 235.3809 14.23285185730511
NO-44
1 26931U 01043C 12214.71853430 .00000185 00000-0 10410-3 0 1029
2 26931 067.0521 002.9893 0007225 256.2402 103.7898 14.29816269565754
SO-50
1 27607U 02058C 12214.81135617 +.00000407 +00000-0 +82565-4 0 08281
2 27607 064.5566 156.1044 0080572 239.4261 119.8886 14.72445839516680
CO-55
1 27844U 03031E 12214.61830349 .00000148 00000-0 88138-4 0 4301
2 27844 098.7033 222.3376 0010673 089.7898 270.4522 14.21048711471348
CO-57
1 27848U 03031J 12214.48909375 +.00000089 +00000-0 +61189-4 0 03812
2 27848 098.7123 221.5643 0010605 094.9879 265.2532 14.20796817471262
AO-51
1 28375U 04025K 12214.90942143 .00000123 00000-0 49859-4 0 3302
2 28375 098.1516 178.0683 0082760 263.0655 096.1082 14.40970870425355
CP3
1 31129U 07012N 12214.59807007 .00000766 00000-0 18364-3 0 2270
2 31129 097.8823 219.7023 0100889 342.6817 017.0957 14.53145628280576
CO-65
1 32785U 08021C 12214.78692883 +.00000862 +00000-0 +11216-3 0 03777
2 32785 097.7973 274.7543 0013291 274.0307 085.9390 14.83080158230524
PRISM
1 33493U 09002B 12215.71753804 .00002180 00000-0 26730-3 0 9384
2 33493 098.1765 357.4092 0019470 143.1022 217.1542 14.84084721190656
SOHLA-1
1 33496U 09002E 12215.79952920 .00000324 00000-0 62365-4 0 7948
2 33496 098.1087 327.2372 0005585 252.0910 107.9678 14.70005835189096
SO-67
1 35870U 09049F 12215.87047543 .00003840 00000-0 16066-3 0 1971
2 35870 097.2298 249.9782 0003109 041.5783 083.9538 15.24148636159724
TISAT-1
1 36799U 10035E 12215.72430062 .00001283 00000-0 16801-3 0 2141
2 36799 098.0600 292.3980 0015429 027.2987 332.9062 14.82092088111389
STUDSAT
1 36801U 10035G 12214.90614212 +.00003572 +00000-0 +42811-3 0 04577
2 36801 098.0667 292.4968 0012995 016.1262 344.0372 14.84673007111309
FO-69
1 37227U 0 12179.46825757 +.00000166 +00000-0 +31335-4 0 02192
2 37227 071.9703 289.2712 0018108 298.3339 061.6016 14.77092260037611
FO-70
1 37380U 0 12179.47554455 +.00000208 +00000-0 +37493-4 0 02230
2 37380 071.9743 289.8278 0018623 295.0880 064.8372 14.76843679037500
ALMASAT-1
1 38078U 12006B 12215.44514924 .00015564 00000-0 42945-3 0 4396
2 38078 069.4874 212.3731 0753127 190.9032 167.4891 14.10627630 24073
XATCOBEO
1 38082U 12006F 12215.40065304 .00034248 00000-0 83050-3 0 4437
2 38082 069.4868 209.3402 0723252 189.2776 169.4266 14.19500754 24146
NOAA-10
1 16969U 86073A 12215.76974074 .00000073 00000-0 47372-4 0 145
2 16969 098.5788 243.9908 0013104 097.5080 262.7605 14.27566624346511
NOAA-11
1 19531U 88089A 12215.74421476 -.00000208 00000-0 -85122-4 0 94
2 19531 098.7325 299.9230 0011989 090.2868 269.9687 14.14973535231094
NOAA-12
1 21263U 91032A 12215.79413433 .00000031 00000-0 31614-4 0 4958
2 21263 098.7255 237.2369 0014810 066.6330 293.6404 14.25509554103194
MET-3/5
1 21655U 91056A 12214.42587172 -.00000397 +00000-0 -10645-2 0 00019
2 21655 082.5574 120.2363 0012915 204.8054 155.2449 13.17043851007606
MET-2/21
1 22782U 93055A 12215.79722648 .00000022 00000-0 60185-5 0 4881
2 22782 082.5482 355.5243 0023297 025.3987 334.8314 13.83686231955619
OKEAN-4
1 23317U 94066A 12215.89856756 .00001010 00000-0 11850-3 0 9592
2 23317 082.5417 347.5270 0020786 193.2306 166.8367 14.83870687961735
NOAA-14
1 23455U 94089A 12215.82329329 -.00000003 00000-0 21550-4 0 9753
2 23455 098.8255 298.7348 0009372 178.3696 181.7509 14.13864780907380
NOAA-15
1 25338U 98030A 12215.53621097 .00000066 00000-0 46826-4 0 3520
2 25338 098.6924 202.0158 0010321 339.3378 020.7362 14.25100571739456
RESURS
1 25394U 98043A 12215.90754645 .00000016 00000-0 24485-4 0 1512
2 25394 098.3240 201.6935 0002287 089.1534 270.9909 14.24291223731058
FENGYUN1
1 25730U 99025A 12214.92501652 +.00000715 +00000-0 +43208-3 0 06723
2 25730 098.8475 173.1189 0017355 233.3009 126.6565 14.09684193681057
OKEAN-0
1 25860U 99039A 12214.93901070 +.00000308 +00000-0 +54103-4 0 07187
2 25860 097.9397 176.6569 0001767 077.5057 282.6350 14.74251942701316
NOAA-16
1 26536U 00055A 12215.49700179 -.00000059 00000-0 -68527-5 0 8404
2 26536 099.0916 258.3285 0009970 316.8825 043.1571 14.12764003611578
NOAA-17
1 27453U 02032A 12215.66360015 .00000307 00000-0 14998-3 0 7886
2 27453 098.3345 240.3493 0012141 024.9970 335.1788 14.24465878525376
NOAA-18
1 28654U 05018A 12215.63204521 .00000026 00000-0 39544-4 0 2702
2 28654 099.0487 174.1162 0015012 027.0294 333.1640 14.11679994371113
NOAA-19
1 33591U 09005A 12215.65031028 .00000024 00000-0 37554-4 0 4596
2 33591 098.8646 154.8682 0013128 249.9340 110.0408 14.11366849179569
HUBBLE
1 20580U 90037B 12215.15326402 .00001229 00000-0 77543-4 0 476
2 20580 028.4693 202.7095 0003583 184.7121 175.3444 15.02654014 21657
ISS
1 25544U 98067A 12215.90472985 .00021088 00000-0 31576-3 0 462
2 25544 051.6396 249.0025 0001145 009.7490 048.1252 15.54918093785281
CO-58
1 28895U 05043F 12214.63737407 +.00000619 +00000-0 +13588-3 0 02415
2 28895 097.9080 078.8999 0017682 012.9777 347.1933 14.60690778360292
FALCON
1 30776U 07006E 12215.74184904 .00003327 00000-0 21541-3 0 4046
2 30776 035.4341 352.4229 0001526 045.2614 314.8228 15.07845874297283
MAST
1 31126U 07012K 12214.97975477 +.00000535 +00000-0 +12973-3 0 05251
2 31126 097.8728 223.4033 0093421 328.6730 030.8923 14.54212808280922
CAPE1
1 31130U 07012P 12214.91617364 +.00000825 +00000-0 +19749-3 0 05337
2 31130 097.8833 219.6993 0101232 342.3396 017.4315 14.53009217280414
COMPASS
1 32787U 08021E 12214.64682246 +.00001366 +00000-0 +16952-3 0 03723
2 32787 097.7966 274.9724 0014093 272.8142 087.1455 14.84156106230552
AAUSAT2
1 32788U 08021F 12215.61745642 .00002225 00000-0 27004-3 0 3637
2 32788 097.7992 276.3295 0013281 270.5713 089.3962 14.84497982230724
DO-64
1 32789U 08021G 12215.75126357 .00003584 00000-0 41459-3 0 3795
2 32789 097.8103 278.6627 0013367 264.7651 095.2011 14.86097380230793
CO-66
1 32791U 08021J 12214.58730570 +.00001245 +00000-0 +15738-3 0 03610
2 32791 097.7967 274.6197 0014100 270.9433 089.0214 14.83545812230470
RS-30
1 32953U 08025A 12215.65101180 .00000010 00000-0 00000+0 0 171
2 32953 082.5010 266.2472 0018192 202.7122 157.3153 12.43026128190336
PHARMSAT
1 35002U 09028B 12215.86735703 .00503214 12552-3 64137-3 0 368
2 35002 040.4482 124.4247 0012509 249.8177 110.1157 16.06275110181772
METEOR-M
1 35865U 09049A 12215.66373244 -.00000029 00000-0 63180-5 0 6470
2 35865 098.6512 269.1095 0001722 290.7211 069.3779 14.21866346149204
RS-38
1 35869U 09049E 12215.67795319 -.00000004 00000-0 17880-4 0 6542
2 35869 098.6467 269.1116 0003838 283.0176 077.0579 14.22080162149227
JUGNU
1 37839U 11058B 12215.66855132 .00000619 00000-0 19019-3 0 1982
2 37839 019.9628 076.6356 0019429 016.1827 343.9190 14.12070372 41821
SRMSAT
1 37841U 11058D 12215.71556178 .00000264 00000-0 00000+0 0 1981
2 37841 019.9711 082.1471 0011852 338.9053 021.0881 14.10152275 41760
RAX-2
1 37853U 11061D 12215.76004671 .00003200 00000-0 26015-3 0 2464
2 37853 101.7106 277.1584 0246206 218.1782 140.1745 14.80274703 41280
AUBIESAT
1 37854U 11061E 12214.89154877 +.00003204 +00000-0 +25643-3 0 02552
2 37854 101.7114 276.1984 0247238 219.6684 138.6203 14.80668086041154
HRBE
1 37855U 11061F 12214.84226442 +.00002553 +00000-0 +20698-3 0 02502
2 37855 101.7118 276.0734 0247949 220.0628 138.2032 14.80509289041148
RS-39
1 38051U 11062C 12215.73803604 .00009592 00000-0 39172-3 0 5715
2 38051 051.6356 297.9020 0013900 202.6990 301.9069 15.24957299 29074
E-STAR
1 38079U 12006C 12215.42880991 .00029218 00000-0 70864-3 0 3981
2 38079 069.4890 209.7797 0732534 189.6248 169.0130 14.17545081 24134
GOLIAT
1 38085U 12006J 12215.38235746 .00029524 00000-0 70899-3 0 3691
2 38085 069.4875 210.3122 0738288 189.9680 168.6087 14.16519567 24112
HORYU-2
1 38340U 12025D 12215.45240283 .00000825 00000-0 14570-3 0 779
2 38340 098.1748 155.2916 0013075 177.8031 182.3290 14.70063795 11277
/EX
More information about the Keps
mailing list